Location: Abraham Lincoln Continuation High School
(33.9711°N, 117.3662°W)
Time: 01:14:49
(UTC+00:00)

Iridium 4 Rocket - Pass Details

Date: 18 January 2021
Orbit: 583 x 906 km, 86.9° (Epoch: 03 March)

Event Time Altitude Azimuth Distance (km) Brightness Sun altitude
Rises 03:30:49 0° 354° (N) 3,485 6.9 -29.7°
Reaches altitude 10° 03:33:21 10° 352° (N) 2,512 6.2 -30.3°
Enters shadow 03:35:27 23° 346° (NNW) 1,736 5.3 -30.7°
Exits shadow 03:41:10 34° 205° (SSW) 1,290 4.8 -31.9°
Drops below altitude 10° 03:44:04 10° 193° (SSW) 2,308 6.1 -32.5°
Sets 03:46:19 0° 190° (S) 3,181 6.9 -32.9°
